Wind_Speed
18 18 19 20 20 19 19 18 18 18 17 17 17 17 17 16 15 13 11 10 10 10 9 9 8 8 8 7 6 6 5 5 5 5 6 6 5 5 5 4 3 4 7 9 10 11 13 13 12 9 8 9 10 10 9 9 9 8 7 5 4 3
18 18 19 19 19 19 19 19 19 19 18 17 16 17 17 15 14 12 11 10 10 9 8 8 7 7 6 6 6 6 5 5 4 4 4 5 5 5 4 3 3 4 6 8 9 10 13 13 12 9 7 9 10 10 9 9 9 8 6 5 4 3
17 18 19 18 19 19 19 19 19 18 18 16 16 16 16 14 13 11 11 10 9 8 8 7 7 6 5 5 5 5 4 3 3 3 3 4 4 4 4 4 3 4 5 7 8 9 12 13 12 9 7 9 11 11 10 10 9 7 6 5 4 3
17 18 19 19 19 19 18 18 17 17 17 16 15 15 15 13 11 11 10 10 9 8 7 7 5 4 4 5 4 4 3 2 2 4 4 3 3 4 4 4 4 4 5 6 7 8 11 12 11 9 7 9 11 11 10 9 8 7 5 4 4 3
17 17 18 18 17 17 17 17 17 16 16 15 15 14 13 11 10 10 10 9 9 8 7 6 4 3 3 4 3 3 3 2 2 3 4 3 3 4 4 5 5 5 5 6 6 7 10 12 11 10 8 9 12 12 10 9 8 7 5 4 4 3
18 18 17 17 17 17 17 17 17 16 15 15 13 13 12 11 11 10 9 9 9 8 7 5 4 3 3 3 3 2 2 2 2 3 3 3 3 3 4 6 6 6 6 5 5 6 10 11 10 9 9 10 12 11 9 8 7 7 6 4 4 3
19 17 16 16 16 16 16 16 16 15 15 13 11 11 11 11 11 10 10 9 9 8 7 6 5 4 3 2 2 2 2 2 2 3 3 3 3 3 4 5 6 6 6 5 4 6 10 11 10 9 9 10 11 10 9 8 7 6 6 4 4 3
18 17 16 16 15 15 14 15 15 13 12 12 10 10 10 10 10 11 10 10 9 9 8 8 7 6 4 3 2 2 2 3 3 3 3 3 3 3 3 5 6 7 6 5 4 6 9 10 9 9 9 9 9 9 8 7 6 6 5 4 4 3
17 17 15 15 15 14 13 13 12 10 9 10 9 9 10 10 10 10 10 10 9 9 9 9 8 7 6 4 3 2 2 3 4 3 4 3 3 4 4 5 7 8 7 5 4 6 9 9 8 8 8 8 7 7 7 6 5 5 5 4 4 3
17 16 16 15 14 13 11 10 9 8 9 9 9 9 10 10 9 9 10 10 10 10 11 10 9 8 7 6 5 4 4 4 5 5 5 4 4 4 5 6 8 9 8 6 5 6 8 9 8 7 7 7 6 5 5 5 5 5 4 4 4 3
17 17 16 14 11 11 9 9 9 8 9 9 9 9 10 10 9 10 11 11 11 11 11 10 10 8 8 7 6 6 6 6 6 6 6 5 5 5 5 6 9 10 9 6 6 7 9 9 8 7 7 7 6 5 4 5 5 5 4 4 4 3
18 17 15 13 10 11 10 10 9 9 10 9 9 9 10 10 10 11 11 11 12 13 12 12 11 10 8 7 7 8 8 7 7 6 6 6 6 6 6 6 9 11 11 8 8 9 10 10 9 8 7 7 7 6 6 6 6 6 5 4 3 2
18 16 14 12 12 11 10 9 9 10 10 10 9 9 9 10 10 11 10 12 15 14 14 13 12 12 9 7 9 10 9 7 6 6 7 8 7 7 7 6 8 11 12 10 9 10 11 11 11 10 8 7 7 7 6 6 7 6 4 4 4 3
17 15 14 13 13 11 10 10 9 9 10 9 8 8 9 10 10 10 11 14 16 14 13 11 12 12 8 8 10 9 8 7 6 6 7 8 8 7 8 7 7 9 11 11 10 11 12 12 12 12 11 10 9 8 7 6 7 6 4 3 3 4
16 15 14 14 12 11 10 10 9 9 9 8 7 7 9 10 10 11 11 12 12 12 12 10 14 13 8 9 11 9 9 9 8 8 7 8 8 7 7 8 8 8 9 11 11 11 12 12 12 12 12 10 9 9 7 7 7 7 5 4 4 4
17 16 15 14 12 11 11 10 9 9 9 8 8 7 8 10 10 11 11 10 8 10 11 10 12 9 7 9 10 9 10 9 10 9 8 8 8 7 7 8 9 8 8 9 9 10 11 12 12 12 11 11 10 9 9 9 9 8 7 6 6 6
18 17 16 14 13 12 11 10 9 9 8 8 7 6 6 8 10 12 11 9 7 8 8 7 7 3 6 8 9 10 10 9 10 11 9 8 7 7 7 8 9 9 8 8 8 9 10 10 9 10 11 10 9 10 11 11 10 9 9 8 8 8
19 18 16 14 13 12 11 10 9 8 7 6 5 5 6 7 9 11 11 10 8 6 6 5 4 2 5 7 9 10 9 9 9 11 10 9 8 8 7 7 8 9 9 8 8 8 9 8 7 7 7 7 6 7 9 11 10 10 10 9 9 9
20 19 17 15 14 12 11 9 8 7 6 4 3 3 3 4 6 7 7 7 7 6 5 4 4 3 5 7 8 10 9 9 10 10 10 9 9 9 8 8 8 8 8 9 9 9 8 7 7 7 7 6 4 4 6 8 8 8 8 8 8 9
20 19 17 16 14 12 10 9 7 6 4 3 1 2 2 2 2 3 4 4 5 5 4 4 4 4 4 5 7 9 10 10 10 10 10 10 10 9 9 9 7 7 7 8 9 9 8 7 6 7 7 6 4 4 4 4 4 4 4 4 4 5
20 19 16 15 13 10 8 6 4 4 4 3 3 3 2 1 2 1 3 4 4 4 4 4 4 3 2 4 5 7 8 9 10 10 11 11 10 10 10 9 8 8 7 8 9 9 8 6 5 7 7 6 5 5 4 4 4 3 2 3 3 2
19 17 15 13 11 8 6 4 3 3 3 3 4 3 2 1 2 2 1 2 3 2 2 2 3 2 0 1 2 4 5 7 8 9 10 10 10 10 10 9 9 9 8 8 8 9 9 8 7 7 7 6 5 5 4 5 4 3 3 3 2 2
17 15 13 13 10 7 6 4 3 2 3 3 3 3 4 3 3 4 4 3 1 1 1 1 1 1 2 2 1 1 3 5 6 7 8 9 10 10 10 10 10 9 8 7 9 10 10 10 9 8 8 7 5 4 4 4 4 3 3 2 2 2
16 14 13 13 11 8 6 4 3 2 1 1 1 3 4 4 4 4 4 4 2 1 1 1 1 2 2 3 3 2 2 4 5 6 7 8 9 9 9 9 9 8 7 7 9 11 11 11 10 9 9 9 6 5 4 3 3 2 2 2 2 2
15 14 13 13 11 9 7 5 4 3 1 1 1 3 4 5 5 4 3 4 3 2 1 1 2 2 2 3 4 5 4 4 5 5 5 5 6 6 6 7 7 6 5 6 9 11 11 11 10 9 10 10 8 7 7 6 5 4 3 4 4 5
16 14 14 13 11 10 8 6 5 2 1 2 3 4 4 5 5 4 4 5 5 4 3 2 1 0 1 2 2 3 4 4 3 3 4 4 4 5 5 6 6 4 5 6 8 10 10 9 9 9 11 11 9 8 8 9 9 8 6 5 5 5
17 15 14 14 13 12 10 8 6 3 3 3 4 4 4 5 5 5 5 5 6 6 5 4 3 3 3 2 2 2 2 3 3 3 3 3 3 3 4 5 5 4 4 6 7 8 8 8 9 11 12 11 9 8 8 11 12 11 9 8 5 4
18 16 15 14 14 13 11 9 7 5 3 1 2 3 5 6 6 6 5 5 5 6 6 5 4 4 4 4 4 3 3 5 5 4 3 2 3 4 4 5 6 6 5 6 6 7 8 9 11 12 12 10 8 8 10 11 12 11 11 12 9 7
19 18 16 15 15 14 11 9 8 7 4 1 1 4 6 8 8 6 4 3 4 5 6 5 4 4 4 4 4 3 2 4 5 4 4 3 3 4 5 6 7 7 8 8 8 8 10 11 11 10 9 8 8 10 11 11 11 10 11 12 12 11
20 19 17 15 15 14 12 10 8 7 4 1 3 6 8 10 9 7 5 4 3 5 6 5 4 4 5 5 4 3 3 4 5 5 4 4 3 3 4 5 7 8 9 10 10 10 11 12 11 10 10 9 10 11 11 11 11 11 11 11 11 12
19 18 17 15 15 14 13 11 9 7 4 1 3 6 8 10 9 7 6 5 5 6 6 5 5 5 5 5 4 4 4 6 6 5 4 3 2 3 5 7 7 9 10 11 11 11 11 12 12 12 12 11 11 11 10 11 11 11 11 12 13 14
19 18 17 17 16 16 14 12 11 8 4 0 2 4 6 8 9 8 6 5 6 6 5 5 5 6 6 6 5 4 5 7 7 5 3 2 1 4 7 8 9 10 11 12 12 12 12 12 13 13 13 12 12 11 11 11 12 12 12 13 14 14
19 19 19 18 17 16 15 13 10 7 4 1 1 4 6 6 7 7 6 5 5 5 4 5 5 6 7 7 6 5 6 7 6 4 3 2 3 5 8 9 10 11 11 12 11 11 11 12 12 12 12 12 12 11 10 11 10 10 11 12 13 13
20 21 22 20 18 18 16 13 8 6 5 3 1 2 3 3 2 5 6 3 3 4 4 4 5 7 9 9 8 7 8 8 6 5 5 5 6 7 7 9 10 10 10 10 10 10 10 11 11 11 11 11 11 10 10 10 9 9 9 10 10 10
23 23 21 19 19 20 19 15 10 8 8 6 3 1 4 4 2 2 3 1 3 4 4 4 5 8 11 10 10 10 10 10 9 9 9 9 9 9 9 10 10 10 10 10 11 11 11 12 11 11 11 11 12 12 12 12 11 11 10 10 9 8
22 20 17 19 22 23 21 19 17 15 14 11 7 6 8 6 4 3 2 2 4 4 4 4 5 8 10 10 10 10 10 11 10 10 10 9 9 9 9 10 10 10 11 11 11 11 11 12 12 13 14 14 14 15 15 15 15 14 13 11 11 10
19 18 19 21 23 22 21 21 22 21 20 19 16 13 11 8 7 5 4 3 5 4 3 5 5 7 8 8 9 9 9 9 9 9 9 9 8 8 8 9 9 10 11 12 13 13 13 14 15 16 16 16 16 16 16 16 15 15 14 13 12 11
Wind_Direction
180 180 179 180 183 184 184 182 178 180 181 177 176 175 174 173 172 172 170 164 160 156 153 156 154 154 157 157 153 151 152 148 142 136 133 140 157 170 179 199 214 210 214 219 222 216 207 207 211 204 176 161 158 156 152 143 131 117 106 95 84 67
178 179 181 182 182 180 182 182 180 180 178 177 176 173 174 174 172 171 170 166 161 157 154 153 149 150 154 151 154 153 153 157 158 152 144 144 155 172 184 197 223 225 216 217 221 216 207 206 208 204 179 159 161 160 152 143 132 118 105 88 75 55
178 180 182 181 180 181 182 181 180 178 175 174 176 175 174 173 171 170 170 167 162 162 158 151 148 152 153 152 158 157 152 154 168 174 171 163 158 168 188 200 226 240 226 221 221 216 205 201 203 203 181 160 162 161 153 145 135 119 103 82 67 50
180 183 183 182 181 179 179 179 178 176 173 175 176 176 175 172 172 170 169 167 167 170 166 159 158 157 156 158 164 162 147 130 158 179 183 181 169 164 179 203 226 235 226 222 222 214 200 194 198 199 180 164 164 161 157 150 138 121 103 80 62 46
184 187 186 184 180 176 176 179 179 178 177 178 178 176 175 174 174 174 171 172 176 179 177 174 173 166 161 163 165 160 154 142 153 178 188 195 196 177 179 199 214 219 213 212 216 210 194 187 193 193 181 172 167 164 163 156 142 124 107 89 68 46
187 191 189 184 180 177 178 179 181 184 184 182 181 178 177 177 179 180 180 183 187 189 191 188 189 187 174 167 164 162 171 175 168 180 196 206 214 203 190 191 196 200 199 197 205 202 186 180 185 186 178 173 169 169 169 161 149 130 114 100 80 56
188 189 186 183 182 182 182 183 184 188 188 184 183 185 184 183 184 187 190 194 196 198 202 204 206 205 195 185 174 169 180 189 189 189 198 209 209 207 200 191 185 183 184 186 199 197 182 175 177 178 169 169 171 170 167 162 151 132 116 98 83 64
186 186 183 183 187 188 189 189 189 189 186 187 191 195 193 191 192 195 198 200 202 205 212 217 220 220 217 214 191 171 179 193 204 204 202 205 201 195 194 195 180 173 178 182 197 197 183 174 175 174 164 164 168 164 161 160 151 136 117 93 79 68
183 186 185 185 190 193 192 190 193 192 189 197 201 201 200 201 203 205 207 208 210 214 220 225 229 229 227 229 220 201 192 194 202 214 215 206 200 188 175 191 184 174 180 185 195 195 184 178 174 170 164 160 161 160 158 159 156 145 121 92 78 70
183 187 188 186 188 190 189 191 198 201 204 212 211 209 209 212 214 216 218 219 220 221 224 230 233 235 234 232 233 228 215 203 201 207 217 212 206 193 172 185 188 181 186 191 195 189 183 183 177 172 171 166 162 164 164 165 168 160 131 100 88 78
186 188 189 186 185 190 194 199 206 211 215 220 222 222 223 224 225 225 228 229 231 231 231 234 236 238 240 236 237 240 227 209 204 204 211 213 207 201 179 179 187 188 192 193 195 188 182 184 184 182 181 176 174 183 189 185 188 184 162 128 110 91
190 190 188 186 189 197 201 207 215 219 224 228 230 233 234 236 236 235 239 242 240 238 237 236 236 234 235 239 234 233 230 213 209 208 207 208 203 200 188 177 183 191 193 192 192 187 182 183 187 190 193 191 186 192 205 205 201 192 174 156 149 145
194 191 188 190 197 203 207 213 220 225 231 235 235 237 242 246 247 246 248 252 250 243 239 240 244 238 226 231 233 231 229 214 212 216 211 209 205 199 194 185 182 190 193 194 192 187 186 187 190 196 203 206 198 197 206 206 200 194 187 178 174 187
195 192 192 196 201 205 209 215 219 227 233 238 239 239 247 253 258 259 253 253 255 254 252 250 253 249 228 221 230 233 228 217 213 213 211 210 210 205 198 197 192 190 194 196 196 195 196 197 198 202 207 210 208 210 214 212 210 220 234 219 198 210
195 194 196 198 199 202 208 214 216 225 233 238 241 240 253 263 267 268 264 261 262 262 260 251 247 243 223 218 224 221 214 212 213 209 207 210 211 207 201 204 204 199 199 201 205 209 211 212 210 208 207 209 209 213 219 222 227 239 254 249 240 247
195 196 197 196 195 199 206 210 213 220 227 231 235 237 251 266 273 272 272 276 274 268 262 250 249 237 201 211 218 211 205 205 213 213 213 215 209 201 200 206 211 213 212 208 209 216 220 222 221 213 209 212 213 216 221 225 228 237 253 252 249 259
194 195 195 192 192 197 201 205 208 210 213 218 224 230 241 257 272 277 277 278 268 270 278 272 270 245 187 205 213 209 205 204 214 217 218 222 218 209 204 206 213 220 220 212 208 215 220 221 225 220 213 215 219 222 224 226 228 235 244 243 243 252
191 192 190 188 190 194 197 201 200 198 201 207 216 230 243 251 262 272 280 284 277 281 301 302 289 233 190 204 214 214 210 209 217 221 223 227 232 231 222 214 217 221 223 220 215 218 216 210 218 226 220 217 220 223 223 227 232 236 240 242 244 245
189 188 185 186 189 192 196 198 192 188 188 194 209 223 234 246 256 268 280 290 294 301 308 297 284 249 203 203 215 218 218 218 220 227 230 230 232 234 232 230 228 224 223 224 225 227 220 211 221 230 230 231 222 214 218 226 235 239 242 247 249 248
188 184 182 185 187 190 193 191 186 180 172 165 149 152 176 199 229 269 286 298 305 310 310 295 285 275 235 212 217 222 224 224 222 228 235 233 231 233 234 236 233 224 222 223 227 230 221 214 225 222 220 231 220 199 206 217 235 242 240 243 248 251
187 182 181 184 183 183 180 170 163 159 156 138 115 119 140 165 174 238 274 285 297 308 325 331 328 309 243 217 218 227 231 230 227 230 236 238 238 241 241 239 232 225 225 226 230 233 221 208 213 208 204 211 207 198 200 205 220 232 232 240 243 236
186 183 182 184 181 175 166 149 124 120 132 130 118 100 64 68 91 75 11 295 294 306 327 346 360 19 278 228 222 237 244 240 235 233 235 239 243 245 247 246 240 234 232 226 225 225 216 202 203 210 210 206 199 200 204 203 206 212 219 226 230 236
188 187 187 186 180 175 171 165 151 121 117 127 119 72 44 38 48 54 47 38 12 342 332 321 341 359 359 358 346 288 265 251 243 238 239 244 246 247 249 248 245 241 232 218 211 211 211 210 212 219 215 199 186 193 207 213 211 209 210 200 196 219
193 195 195 189 180 178 180 179 184 182 156 139 115 55 37 22 23 41 46 45 51 38 336 277 285 297 314 326 320 305 279 255 246 241 241 242 242 242 241 239 240 234 219 207 203 201 207 216 219 217 205 190 176 181 195 197 186 167 151 131 130 137
199 201 202 194 182 183 189 192 203 209 208 145 96 63 41 20 12 22 38 46 61 89 140 232 252 264 276 283 279 270 257 245 240 235 230 227 227 231 231 233 235 224 203 200 202 198 198 208 218 216 207 194 177 177 188 178 153 136 130 117 112 114
204 207 206 197 187 190 197 202 212 204 105 82 74 65 44 21 8 11 25 37 52 75 99 127 176 242 329 294 267 249 236 223 219 218 214 216 220 225 228 228 225 214 195 197 205 202 197 202 211 209 204 199 198 203 200 180 159 146 134 117 112 116
207 211 209 201 193 196 201 205 207 179 128 92 67 55 32 13 5 10 23 36 46 57 74 89 86 60 50 58 83 100 120 124 128 140 162 184 190 192 199 200 196 195 194 198 204 203 195 191 188 189 191 193 202 205 194 183 171 155 137 120 116 120
210 214 214 208 203 202 204 207 205 189 169 128 75 40 14 5 360 2 16 38 49 46 53 68 64 52 55 70 86 87 96 110 120 127 122 119 129 139 145 150 158 167 173 175 182 183 177 171 170 178 184 183 180 171 171 180 177 164 147 134 128 123
214 217 219 217 213 210 209 211 209 198 187 165 87 37 14 1 354 349 357 29 51 39 38 52 50 55 76 91 97 97 112 125 129 133 128 124 123 121 122 124 132 143 147 149 155 160 160 160 165 176 178 169 160 156 159 167 172 172 162 144 137 134
217 220 224 225 222 219 217 215 211 205 195 140 47 32 15 2 352 341 343 8 33 27 30 43 46 58 86 100 98 95 122 139 134 135 142 143 134 123 122 124 128 134 136 140 144 147 151 157 162 164 162 158 158 161 166 172 176 181 174 157 148 146
223 226 230 231 229 228 225 217 210 207 199 69 41 37 19 5 355 342 341 356 7 15 25 41 51 60 83 99 94 86 117 139 142 146 153 152 141 143 144 139 135 135 133 135 137 140 146 151 153 153 153 156 161 165 169 173 173 170 167 159 152 148
225 230 234 236 235 232 227 218 210 205 200 204 38 50 33 12 357 344 337 350 6 21 34 46 59 70 89 102 94 85 111 138 149 154 160 168 157 154 155 147 136 134 134 132 133 136 137 137 138 142 145 148 152 154 155 158 160 158 157 158 158 155
226 229 231 231 231 230 226 217 210 213 215 214 48 50 35 18 5 350 335 342 17 39 54 59 69 88 102 100 87 88 112 134 146 150 152 150 142 149 156 155 145 139 136 133 131 133 135 133 133 137 138 138 140 145 149 151 153 155 157 161 166 166
225 221 223 226 228 229 224 212 208 229 239 229 188 76 14 354 11 351 333 340 46 63 72 69 80 106 111 99 89 96 114 123 127 127 122 118 122 127 137 151 152 143 135 131 127 125 126 127 128 129 128 128 129 132 135 135 133 138 142 149 160 165
222 217 223 233 235 234 226 212 210 224 234 239 230 266 286 269 251 302 310 7 76 76 82 83 101 119 117 107 103 106 111 115 115 116 115 112 111 111 114 128 137 132 124 120 117 117 116 116 118 119 117 117 119 118 115 112 110 113 117 125 136 145
223 224 236 245 243 239 232 225 224 228 234 234 233 270 274 249 227 233 216 135 95 82 85 99 119 128 124 118 116 115 116 117 117 115 113 109 107 108 109 114 119 121 120 117 115 117 116 114 115 113 111 111 111 109 106 103 101 101 102 105 111 117
236 245 252 250 244 241 242 239 234 231 232 229 234 262 265 228 214 216 195 139 101 83 83 109 125 134 133 128 125 125 126 126 125 121 117 113 109 108 109 112 116 120 122 120 119 118 117 116 115 111 109 108 108 106 103 101 100 98 95 93 93 98
Height
1534 1536 1537 1538 1539 1541 1542 1543 1543 1544 1546 1548 1548 1549 1550 1551 1553 1554 1555 1556 1556 1557 1558 1559 1559 1560 1560 1560 1560 1561 1561 1561 1561 1561 1562 1562 1563 1563 1563 1563 1563 1563 1563 1563 1563 1564 1565 1566 1567 1567 1569 1570 1571 1572 1573 1573 1574 1574 1574 1574 1574 1574
1535 1536 1537 1538 1539 1541 1542 1543 1544 1545 1547 1548 1549 1549 1550 1552 1553 1554 1555 1556 1557 1557 1558 1559 1559 1560 1560 1560 1561 1561 1561 1561 1561 1561 1561 1562 1562 1563 1563 1563 1563 1563 1563 1563 1563 1564 1565 1566 1567 1568 1569 1570 1571 1572 1573 1574 1574 1574 1574 1574 1574 1574
1535 1536 1537 1538 1539 1541 1542 1544 1545 1546 1547 1549 1549 1550 1551 1552 1553 1554 1555 1556 1557 1557 1558 1558 1559 1559 1560 1561 1561 1561 1561 1561 1560 1561 1561 1561 1562 1563 1563 1563 1563 1563 1563 1563 1564 1565 1566 1566 1567 1568 1569 1570 1571 1572 1573 1573 1574 1574 1575 1575 1574 1574
1535 1536 1537 1538 1539 1541 1543 1545 1546 1547 1548 1549 1549 1550 1551 1552 1553 1554 1555 1556 1556 1557 1557 1558 1558 1559 1560 1560 1561 1561 1560 1561 1560 1560 1560 1561 1562 1563 1563 1563 1563 1563 1563 1563 1564 1565 1566 1567 1567 1568 1569 1570 1571 1572 1573 1573 1574 1575 1575 1575 1575 1574
1535 1537 1538 1539 1540 1541 1543 1544 1546 1547 1548 1549 1550 1550 1551 1552 1553 1554 1555 1555 1556 1556 1557 1557 1558 1559 1559 1560 1560 1560 1560 1560 1560 1560 1560 1561 1561 1562 1563 1563 1563 1563 1563 1563 1564 1565 1566 1567 1568 1569 1570 1571 1571 1572 1573 1573 1574 1575 1575 1575 1575 1574
1535 1537 1538 1539 1540 1541 1543 1544 1545 1547 1548 1549 1550 1551 1551 1552 1553 1554 1555 1555 1556 1556 1557 1557 1558 1558 1559 1559 1560 1560 1560 1560 1560 1560 1560 1560 1561 1562 1562 1563 1563 1563 1563 1564 1565 1566 1567 1567 1568 1569 1570 1571 1572 1572 1573 1573 1574 1575 1575 1575 1575 1574
1535 1537 1538 1539 1541 1541 1542 1544 1545 1547 1548 1549 1550 1551 1552 1552 1553 1554 1554 1555 1555 1556 1556 1557 1557 1558 1558 1558 1559 1559 1559 1560 1560 1560 1560 1560 1560 1561 1562 1563 1563 1564 1564 1565 1565 1566 1567 1568 1569 1570 1571 1571 1572 1573 1573 1574 1574 1575 1575 1575 1575 1574
1535 1536 1538 1540 1541 1542 1543 1544 1546 1547 1548 1549 1550 1551 1551 1552 1553 1554 1554 1554 1555 1555 1556 1556 1556 1557 1557 1558 1558 1558 1558 1559 1559 1559 1559 1560 1560 1561 1562 1563 1564 1564 1565 1565 1566 1567 1567 1568 1569 1570 1571 1572 1573 1573 1574 1574 1575 1575 1575 1575 1575 1575
1535 1536 1538 1539 1540 1542 1543 1544 1546 1547 1548 1549 1550 1550 1551 1552 1553 1553 1554 1554 1554 1554 1555 1555 1556 1556 1556 1557 1557 1557 1558 1558 1558 1558 1559 1559 1560 1561 1562 1563 1563 1564 1565 1566 1566 1567 1568 1569 1570 1571 1571 1572 1573 1574 1574 1575 1575 1575 1575 1575 1575 1575
1535 1536 1537 1539 1540 1541 1543 1544 1545 1547 1548 1549 1549 1550 1551 1552 1552 1553 1553 1553 1553 1554 1554 1554 1555 1556 1556 1556 1557 1557 1557 1557 1557 1558 1558 1559 1559 1560 1562 1562 1563 1564 1565 1566 1566 1567 1568 1569 1570 1571 1572 1573 1573 1574 1575 1575 1575 1575 1575 1575 1575 1575
1534 1536 1537 1538 1540 1541 1543 1544 1545 1547 1547 1548 1549 1550 1550 1551 1552 1552 1552 1553 1552 1552 1553 1553 1554 1555 1556 1556 1557 1557 1556 1556 1556 1557 1557 1558 1559 1560 1561 1561 1562 1563 1564 1565 1566 1567 1568 1569 1570 1571 1572 1573 1574 1574 1575 1575 1575 1575 1575 1576 1576 1576
1534 1535 1536 1538 1540 1541 1543 1544 1545 1546 1547 1548 1549 1549 1550 1550 1551 1551 1552 1552 1551 1551 1551 1551 1552 1553 1555 1556 1556 1556 1556 1556 1556 1556 1557 1557 1558 1559 1560 1561 1562 1563 1564 1565 1565 1566 1568 1569 1570 1571 1572 1573 1574 1574 1575 1575 1575 1575 1575 1575 1576 1576
1533 1535 1536 1538 1540 1541 1543 1544 1544 1545 1546 1547 1548 1549 1549 1549 1549 1550 1551 1550 1548 1549 1549 1549 1551 1552 1554 1556 1556 1555 1556 1556 1556 1556 1557 1557 1558 1558 1559 1561 1562 1563 1564 1564 1565 1566 1567 1568 1569 1570 1571 1572 1573 1574 1575 1575 1575 1575 1575 1576 1576 1576
1533 1534 1536 1538 1539 1541 1542 1543 1544 1545 1545 1546 1547 1548 1548 1548 1548 1549 1550 1549 1547 1547 1548 1549 1550 1550 1553 1556 1555 1555 1556 1556 1556 1556 1556 1557 1557 1558 1559 1560 1562 1563 1564 1564 1565 1566 1566 1567 1568 1568 1569 1571 1572 1573 1574 1575 1575 1575 1576 1576 1576 1576
1533 1534 1536 1537 1539 1540 1541 1542 1543 1544 1545 1546 1547 1547 1547 1547 1547 1548 1548 1548 1547 1547 1547 1549 1549 1550 1553 1554 1553 1555 1555 1555 1555 1556 1556 1557 1557 1558 1558 1560 1561 1562 1563 1564 1565 1565 1566 1567 1567 1568 1568 1569 1571 1572 1574 1575 1575 1575 1576 1575 1576 1576
1533 1534 1536 1537 1538 1539 1540 1542 1543 1544 1545 1546 1546 1547 1547 1546 1546 1546 1546 1546 1547 1546 1547 1548 1549 1550 1553 1552 1552 1553 1553 1554 1554 1555 1556 1556 1557 1558 1558 1559 1560 1562 1563 1564 1564 1565 1565 1566 1567 1568 1568 1569 1571 1572 1573 1574 1574 1575 1575 1575 1575 1575
1532 1533 1535 1536 1538 1539 1540 1542 1543 1544 1545 1546 1546 1547 1547 1547 1546 1545 1546 1546 1546 1546 1546 1547 1548 1550 1551 1551 1551 1552 1552 1553 1553 1554 1555 1556 1557 1557 1558 1559 1560 1561 1562 1563 1564 1564 1565 1566 1567 1567 1567 1568 1569 1571 1572 1573 1574 1574 1574 1574 1574 1575
1531 1532 1534 1535 1537 1539 1540 1541 1543 1544 1545 1545 1546 1546 1547 1547 1546 1545 1545 1546 1546 1546 1546 1547 1548 1549 1550 1550 1550 1551 1551 1552 1553 1554 1554 1555 1556 1556 1557 1558 1559 1560 1562 1563 1563 1564 1564 1565 1566 1567 1567 1567 1568 1570 1571 1572 1573 1573 1573 1573 1574 1574
1531 1532 1533 1535 1537 1538 1540 1541 1542 1543 1544 1545 1546 1546 1546 1546 1546 1546 1545 1545 1546 1546 1546 1547 1547 1548 1548 1549 1549 1550 1550 1551 1552 1553 1553 1554 1555 1555 1557 1558 1559 1560 1561 1562 1562 1563 1564 1564 1565 1567 1567 1566 1567 1568 1570 1571 1572 1572 1572 1572 1572 1573
1530 1531 1533 1535 1536 1538 1539 1541 1542 1543 1544 1545 1545 1545 1546 1546 1546 1546 1545 1545 1545 1546 1546 1547 1547 1547 1547 1548 1548 1549 1550 1550 1551 1552 1552 1553 1554 1555 1556 1557 1558 1559 1560 1561 1561 1562 1563 1564 1565 1566 1567 1567 1567 1568 1570 1570 1571 1572 1572 1572 1572 1572
1530 1531 1533 1534 1536 1538 1539 1541 1542 1543 1544 1544 1544 1545 1545 1545 1546 1545 1545 1545 1545 1546 1546 1546 1546 1546 1547 1548 1548 1549 1549 1550 1551 1551 1552 1552 1553 1554 1555 1556 1557 1558 1559 1559 1560 1561 1562 1564 1565 1565 1566 1566 1567 1568 1569 1570 1571 1571 1571 1571 1571 1571
1530 1531 1533 1535 1536 1538 1539 1541 1542 1542 1543 1544 1544 1544 1545 1545 1545 1545 1545 1545 1545 1545 1546 1546 1546 1547 1547 1548 1548 1549 1549 1550 1550 1551 1551 1552 1552 1553 1554 1555 1556 1557 1558 1558 1559 1559 1561 1563 1564 1565 1565 1566 1567 1569 1569 1570 1570 1570 1570 1570 1570 1570
1530 1532 1533 1535 1536 1538 1539 1540 1541 1542 1543 1543 1544 1544 1545 1545 1545 1545 1545 1545 1545 1545 1546 1546 1546 1547 1547 1548 1548 1549 1549 1550 1550 1550 1551 1551 1551 1552 1553 1554 1555 1555 1556 1557 1558 1558 1560 1561 1562 1562 1564 1566 1568 1569 1569 1570 1570 1570 1570 1570 1570 1570
1530 1532 1533 1535 1536 1537 1538 1540 1541 1541 1542 1543 1544 1544 1545 1545 1545 1545 1545 1545 1545 1546 1546 1546 1547 1547 1547 1547 1548 1548 1549 1549 1549 1550 1550 1551 1551 1551 1552 1553 1553 1554 1555 1556 1556 1558 1559 1560 1561 1562 1562 1565 1567 1567 1568 1568 1569 1570 1569 1569 1569 1569
1530 1532 1533 1534 1535 1537 1538 1539 1540 1541 1542 1543 1543 1544 1544 1545 1545 1545 1545 1545 1546 1546 1546 1547 1547 1547 1547 1547 1547 1548 1548 1548 1549 1549 1550 1550 1551 1551 1551 1552 1552 1553 1554 1555 1556 1557 1558 1559 1560 1561 1562 1564 1565 1565 1566 1566 1568 1569 1570 1569 1569 1569
1530 1531 1533 1534 1535 1536 1538 1539 1540 1541 1542 1542 1543 1543 1544 1544 1545 1545 1545 1545 1546 1546 1546 1547 1547 1547 1547 1547 1547 1547 1547 1548 1548 1549 1549 1550 1550 1550 1551 1551 1551 1552 1553 1554 1555 1556 1558 1558 1559 1560 1561 1562 1563 1563 1564 1565 1567 1568 1569 1569 1569 1569
1529 1531 1532 1533 1534 1536 1538 1539 1540 1541 1542 1542 1542 1542 1543 1544 1544 1545 1545 1545 1545 1546 1546 1547 1547 1547 1547 1547 1547 1547 1547 1547 1548 1548 1549 1549 1549 1550 1550 1550 1551 1551 1552 1553 1554 1555 1556 1557 1558 1559 1560 1561 1562 1562 1562 1563 1565 1566 1568 1569 1569 1569
1528 1530 1531 1532 1534 1536 1537 1539 1540 1541 1541 1542 1542 1543 1543 1543 1544 1544 1544 1545 1545 1546 1546 1546 1547 1547 1547 1547 1547 1547 1547 1547 1548 1548 1548 1549 1549 1549 1550 1550 1550 1551 1551 1552 1553 1554 1555 1556 1557 1558 1559 1560 1561 1561 1561 1563 1564 1566 1566 1568 1569 1569
1528 1529 1531 1532 1534 1536 1537 1538 1540 1541 1542 1542 1543 1543 1544 1544 1544 1544 1544 1545 1545 1546 1546 1546 1546 1547 1547 1547 1547 1547 1547 1547 1548 1548 1548 1549 1549 1549 1550 1550 1550 1551 1551 1551 1552 1553 1554 1555 1556 1557 1558 1559 1559 1560 1561 1563 1564 1565 1566 1567 1568 1568
1527 1529 1530 1532 1534 1535 1537 1538 1540 1541 1542 1542 1543 1544 1544 1545 1545 1545 1545 1545 1545 1545 1546 1546 1546 1546 1547 1547 1547 1547 1547 1547 1548 1548 1548 1549 1549 1549 1550 1550 1550 1551 1551 1551 1551 1552 1553 1554 1554 1556 1557 1558 1559 1560 1561 1562 1563 1565 1565 1566 1567 1568
1526 1528 1530 1532 1534 1535 1537 1538 1540 1542 1542 1542 1543 1543 1544 1544 1545 1545 1545 1545 1545 1545 1545 1546 1546 1546 1546 1547 1547 1547 1547 1548 1548 1548 1549 1549 1549 1549 1550 1550 1550 1551 1551 1551 1551 1552 1552 1553 1554 1555 1556 1557 1558 1559 1561 1562 1563 1564 1565 1565 1566 1567
1525 1528 1530 1532 1533 1535 1537 1539 1540 1542 1542 1542 1542 1542 1543 1543 1544 1545 1545 1545 1545 1545 1545 1545 1545 1546 1546 1546 1547 1547 1547 1548 1548 1549 1549 1549 1549 1549 1550 1550 1551 1551 1551 1551 1552 1552 1553 1553 1554 1555 1556 1557 1558 1559 1560 1561 1562 1563 1564 1564 1565 1566
1524 1527 1528 1530 1532 1534 1536 1538 1540 1542 1542 1542 1542 1542 1542 1543 1543 1545 1545 1546 1545 1545 1545 1545 1545 1546 1546 1547 1547 1547 1547 1548 1548 1549 1549 1549 1549 1550 1550 1551 1551 1551 1552 1552 1552 1553 1554 1554 1555 1556 1557 1558 1559 1560 1561 1561 1562 1563 1563 1564 1564 1565
1523 1524 1525 1528 1531 1533 1535 1537 1540 1542 1542 1542 1541 1541 1541 1542 1543 1544 1545 1546 1545 1545 1544 1545 1545 1546 1546 1547 1547 1547 1548 1548 1549 1549 1550 1550 1550 1550 1550 1551 1552 1552 1553 1553 1553 1554 1554 1555 1556 1557 1558 1558 1559 1560 1561 1561 1562 1562 1563 1563 1564 1564
1518 1521 1526 1529 1530 1531 1532 1535 1537 1539 1540 1542 1542 1541 1541 1541 1542 1544 1545 1545 1545 1545 1544 1545 1545 1546 1547 1547 1547 1548 1548 1549 1550 1550 1550 1551 1551 1551 1551 1552 1552 1553 1553 1553 1554 1554 1555 1555 1556 1557 1558 1559 1559 1560 1561 1561 1562 1562 1562 1563 1563 1564
1515 1523 1529 1530 1529 1529 1531 1533 1534 1535 1537 1539 1541 1541 1541 1542 1542 1543 1544 1544 1544 1544 1544 1545 1546 1546 1547 1547 1548 1548 1549 1550 1550 1551 1551 1551 1552 1552 1552 1553 1553 1554 1554 1554 1555 1555 1555 1556 1557 1558 1558 1559 1560 1560 1561 1561 1562 1562 1562 1563 1564 1564
1518 1526 1528 1527 1528 1529 1531 1533 1533 1533 1534 1536 1538 1539 1540 1541 1541 1542 1543 1542 1543 1544 1545 1545 1546 1547 1547 1548 1548 1549 1549 1550 1551 1551 1552 1552 1552 1553 1553 1554 1554 1554 1555 1555 1555 1556 1556 1557 1558 1559 1559 1560 1561 1561 1562 1562 1563 1563 1563 1564 1564 1565